Theta_e
299 299 300 300 300 300 300 300 300 299 299 300 300 301 302 302 302 302 302 302 302 302 302 302 301 301 301 302 303 304 304 303 302 302 303 306 307 308 308 308 308 308 306 306 307 307 309 309 308 308 308 310 311 311 311 312 311 311 315 315 313 314 313 313 315 314 315 318 316 314 314 315 316 316 317 315 317 315 317 327 332 335 335 334 336 338 342 342
298 299 300 301 301 301 302 301 302 301 300 300 300 301 301 302 302 302 302 302 302 302 302 302 302 301 301 301 301 302 303 302 302 302 303 306 307 308 309 309 308 308 307 306 307 307 310 310 310 309 309 310 310 311 311 311 311 311 315 314 311 314 313 313 314 312 314 317 315 315 315 315 316 316 315 315 315 313 327 339 339 340 340 338 338 339 342 343
298 299 300 301 301 301 301 302 302 301 301 301 301 301 300 300 301 301 302 302 302 302 302 302 302 302 301 301 300 300 302 303 302 302 305 307 308 308 308 309 309 308 307 306 307 307 309 310 310 309 309 310 311 311 310 311 311 311 313 312 311 313 313 312 312 312 314 315 315 315 314 313 315 315 314 316 314 312 326 341 342 342 342 342 342 341 343 343
298 298 299 300 300 300 301 302 302 301 301 301 301 301 301 300 300 300 300 301 302 302 302 302 302 301 301 301 299 299 301 302 302 303 306 309 308 308 308 309 309 309 307 306 307 308 309 311 310 309 309 309 310 311 311 311 311 311 311 312 311 312 313 312 312 313 314 315 315 314 314 313 314 315 314 314 315 314 317 323 331 333 332 340 344 342 343 343
297 297 298 299 299 300 301 301 301 302 302 301 300 301 301 300 300 299 299 299 300 301 301 302 302 301 302 301 297 298 301 302 304 306 307 308 307 307 308 308 309 308 307 305 306 308 310 310 310 309 308 308 310 311 311 311 311 312 311 311 311 311 312 313 313 314 314 314 313 313 313 314 314 314 314 314 315 316 315 315 318 319 322 332 339 342 343 343
298 298 298 298 299 300 301 300 301 301 301 301 301 300 300 300 301 301 301 300 299 299 300 300 302 301 301 300 297 297 301 303 306 308 307 308 307 307 307 308 308 307 306 305 306 308 310 310 309 308 307 308 309 310 311 311 311 312 312 311 312 312 312 313 313 314 314 313 312 313 313 314 314 314 314 314 314 315 316 316 317 317 322 330 336 340 342 341
299 300 299 298 298 299 300 300 300 300 300 301 301 300 300 300 300 300 301 301 301 301 301 300 300 301 301 301 298 297 300 303 303 307 309 307 307 306 306 307 308 307 306 306 306 308 310 310 309 308 307 308 308 308 309 311 311 312 312 312 313 313 313 313 314 314 314 313 312 313 314 313 313 314 314 313 315 316 316 316 317 318 325 334 339 340 339 339
300 300 300 300 299 299 299 299 299 299 300 300 300 300 300 300 300 300 300 300 300 301 301 301 300 300 301 300 300 298 299 301 298 304 307 306 306 305 305 306 307 307 307 308 309 309 310 310 310 308 308 309 308 308 309 310 310 311 312 312 313 313 313 314 314 314 314 314 314 313 313 313 313 313 313 314 315 315 316 318 319 321 328 338 340 339 340 341
301 301 301 301 301 301 300 300 299 299 299 300 300 300 300 299 299 299 299 299 300 300 300 301 301 300 300 300 301 299 299 299 297 299 301 302 304 304 304 305 306 307 307 309 310 310 310 310 310 309 308 308 308 308 309 309 309 310 311 311 312 313 313 314 313 314 315 314 314 314 313 313 314 313 313 314 315 315 316 318 322 324 330 340 342 340 340 342
300 301 301 301 301 301 301 300 300 300 301 301 301 300 300 300 300 300 300 299 300 300 300 300 300 300 300 300 300 299 299 297 298 298 298 300 302 303 303 305 306 307 307 307 309 309 310 310 310 309 308 307 307 308 308 309 309 309 310 310 311 312 313 313 313 313 314 313 314 314 314 314 314 314 314 315 316 316 318 323 326 327 332 341 343 342 342 342
300 301 301 301 300 300 300 300 300 301 301 301 302 301 301 301 301 300 300 300 300 300 299 298 300 299 299 300 299 299 299 298 298 297 298 298 299 300 302 304 305 306 306 306 307 308 309 309 309 308 308 308 307 307 308 309 309 310 310 310 310 310 311 312 312 312 312 313 313 313 314 314 313 313 314 315 316 317 322 328 331 331 337 343 343 343 343 343
300 300 301 300 300 300 301 300 301 301 301 301 301 301 301 301 301 301 300 300 300 300 298 298 300 299 299 300 300 300 298 299 298 296 297 296 297 298 299 302 304 305 306 306 307 308 308 309 309 308 308 308 307 308 308 309 309 310 310 310 311 309 310 311 311 312 312 312 313 313 314 314 313 313 314 315 315 316 324 332 334 338 342 344 343 343 343 343
300 300 300 300 300 300 301 301 301 301 301 301 301 301 301 301 301 301 300 298 299 301 298 297 299 299 299 300 300 298 297 297 297 296 297 297 297 296 296 298 302 305 305 305 307 307 307 308 308 308 308 308 308 309 309 309 309 310 310 310 310 310 311 310 310 311 311 312 313 313 314 315 315 313 313 315 315 319 331 340 342 344 345 344 343 343 342 343
299 300 300 300 301 301 301 301 301 301 301 301 301 301 301 301 301 299 299 298 298 300 298 297 299 299 299 299 298 296 297 297 298 299 300 301 299 297 296 297 300 304 305 305 306 307 307 308 307 308 308 308 309 309 309 310 310 310 310 310 310 311 312 311 309 311 311 311 313 313 313 314 315 314 314 315 315 320 336 344 346 346 346 345 344 342 340 341
298 299 300 300 300 300 301 301 301 301 301 301 301 301 301 301 300 298 298 298 297 299 299 298 298 299 299 299 296 297 298 298 299 300 302 303 301 300 299 298 299 302 303 305 306 307 307 307 307 307 307 308 308 308 309 311 311 311 309 310 310 310 313 312 310 311 311 312 312 313 314 314 314 313 313 315 315 318 335 345 347 347 347 345 344 342 340 340
299 299 298 299 300 300 300 301 301 301 301 301 301 301 301 300 299 298 299 299 298 298 298 297 298 298 299 299 297 298 299 299 300 300 302 302 302 302 301 301 301 301 302 305 307 307 307 307 306 306 306 308 308 307 310 311 311 311 309 310 310 309 312 312 310 310 310 312 311 311 315 316 316 313 313 315 314 319 333 344 348 347 347 346 344 343 342 342
299 298 298 298 299 300 300 301 301 301 301 301 301 301 300 299 299 299 300 300 298 297 297 298 298 299 299 299 298 299 299 300 301 300 301 301 301 302 301 302 302 302 303 305 306 306 307 307 306 307 307 308 308 307 309 310 311 311 309 311 311 309 310 311 311 310 309 312 311 311 313 315 317 314 313 314 313 322 336 343 347 347 347 346 345 344 344 344
299 299 299 299 299 300 301 301 301 301 301 301 301 300 299 299 299 299 301 300 297 297 297 298 299 299 300 299 299 299 299 301 301 300 300 300 300 301 302 303 303 304 304 305 306 306 307 306 306 308 308 308 308 307 308 309 310 311 310 311 311 309 310 311 311 311 310 312 312 312 312 312 315 313 312 313 312 322 335 342 346 347 347 346 345 345 345 344
298 299 300 300 300 301 301 301 301 301 300 300 300 300 299 299 299 299 301 300 298 298 298 298 299 300 299 299 299 299 299 300 300 300 299 300 301 303 304 303 303 305 305 306 306 306 306 306 306 308 308 307 307 306 307 309 310 311 311 311 311 311 311 311 312 312 310 311 311 312 312 311 313 313 312 312 311 318 331 341 346 347 347 346 345 345 344 344
299 300 300 300 300 300 301 300 300 300 300 300 300 299 299 299 299 300 301 300 299 299 299 299 300 299 299 299 299 299 300 299 300 300 299 302 303 303 305 304 304 306 306 306 306 306 306 306 306 307 307 308 307 307 308 309 310 310 311 311 310 311 311 311 312 313 311 311 312 311 312 313 313 313 312 311 315 323 332 342 346 346 347 346 345 344 343 343
300 300 300 300 300 300 301 300 300 301 300 299 299 299 299 299 299 300 300 299 299 299 299 299 299 299 300 300 299 299 300 300 300 300 299 301 302 303 305 305 305 306 306 305 306 306 306 307 307 307 308 308 308 309 309 309 309 309 311 311 309 309 311 312 312 312 310 311 313 312 312 313 314 314 312 312 322 333 335 341 346 346 346 345 344 344 343 343
299 300 299 300 300 301 300 300 300 300 299 299 299 299 299 299 299 299 299 299 300 299 299 299 299 300 299 299 299 299 300 300 300 300 299 300 300 302 306 306 306 306 305 305 306 306 306 307 307 307 310 309 308 310 309 309 309 309 310 311 311 310 311 312 312 312 310 311 315 314 311 312 313 313 313 315 321 329 332 339 345 345 345 345 344 343 342 343
300 300 300 300 300 300 300 300 300 300 299 298 298 298 299 299 299 299 299 299 300 299 299 299 299 299 299 299 299 299 300 300 300 300 299 300 301 302 305 306 306 306 306 306 306 306 306 307 307 308 310 309 308 309 310 310 310 310 310 311 312 310 310 312 312 312 311 311 316 315 312 315 315 312 314 316 317 323 330 337 341 344 344 343 342 341 341 342
299 299 299 299 300 300 300 299 300 299 298 298 298 299 299 299 299 299 299 299 299 299 298 299 299 299 299 299 300 300 300 300 300 300 300 301 303 304 305 306 306 306 306 306 306 306 307 306 306 308 309 309 309 309 309 309 309 310 309 311 312 310 311 313 311 314 313 312 314 314 312 315 318 314 314 321 323 326 330 334 338 341 343 342 341 341 341 342
299 299 299 299 300 301 300 299 300 298 298 298 298 299 299 299 299 299 299 298 298 298 298 299 299 300 300 300 300 300 300 300 300 300 300 301 304 305 306 306 306 306 306 306 306 306 307 306 306 308 309 309 309 308 308 308 309 310 309 309 311 310 311 311 310 315 315 312 313 312 311 317 324 318 312 325 333 332 330 331 334 337 340 341 341 341 341 341
298 299 299 300 300 301 300 300 300 298 298 298 298 299 299 299 299 299 298 298 298 298 299 300 300 300 300 300 300 300 300 301 300 299 300 301 303 305 307 307 306 306 306 306 306 306 306 306 306 308 308 308 309 309 308 308 308 309 309 309 310 310 310 310 310 313 316 315 314 311 311 321 327 318 317 331 339 335 331 332 331 333 337 339 339 339 339 340
298 299 300 300 300 300 300 301 300 299 298 298 298 298 298 299 299 299 298 298 298 298 300 301 300 301 301 300 301 300 299 300 300 300 300 301 302 304 306 307 306 305 305 306 307 307 306 306 306 307 308 308 309 309 309 308 309 310 309 308 310 310 309 310 309 312 317 317 315 314 311 316 318 315 323 332 336 333 331 333 331 330 334 336 336 338 338 338
299 300 300 301 301 301 301 301 300 299 299 298 299 299 298 298 298 299 299 298 299 300 301 302 302 301 301 302 301 300 299 300 301 301 300 300 302 303 304 306 305 306 305 306 307 307 306 306 306 306 308 308 308 310 309 308 310 311 308 308 310 310 309 310 309 312 315 313 315 318 313 312 316 321 328 330 332 335 335 335 334 330 331 334 335 336 337 337
300 301 301 301 301 301 301 301 300 300 299 298 299 299 298 298 298 299 299 299 301 302 302 303 303 302 302 303 302 300 299 300 301 302 300 301 302 303 304 304 304 305 305 306 307 306 305 306 306 305 307 308 308 310 309 309 311 309 307 309 310 310 310 310 309 311 312 311 313 315 313 312 316 327 335 333 335 340 339 336 333 329 330 333 334 335 336 337
301 301 301 301 302 301 301 301 301 300 299 298 299 298 299 299 299 299 299 300 301 302 303 303 303 303 303 303 303 301 299 300 301 302 301 302 302 303 304 304 304 304 305 305 307 306 305 306 306 306 307 308 309 309 307 309 311 307 307 309 309 310 311 311 312 310 310 313 315 315 313 312 314 324 333 335 340 345 341 336 332 328 329 331 333 335 335 336
302 302 302 302 302 302 301 301 301 300 298 298 299 299 300 299 299 300 301 301 302 302 303 303 303 304 303 303 304 302 299 300 301 302 302 302 302 302 303 304 304 304 305 305 306 306 305 306 306 306 307 308 309 309 306 308 310 307 308 309 309 311 311 310 311 310 310 315 319 317 314 311 313 321 329 332 339 341 335 334 334 331 330 331 332 334 335 335
302 302 302 302 302 302 302 302 301 300 298 299 300 299 300 300 299 300 301 302 303 303 303 303 303 304 303 303 303 303 301 301 301 302 302 302 302 302 302 304 305 305 305 305 305 306 306 306 306 307 308 308 309 309 307 307 308 308 309 310 310 311 310 309 310 311 313 315 316 314 311 311 314 319 323 326 334 337 333 328 327 327 328 330 332 333 334 335
302 302 303 303 302 302 302 302 302 300 299 299 299 299 300 301 301 301 301 302 304 304 303 303 303 303 304 304 304 303 303 303 302 302 302 302 302 302 302 304 305 307 307 306 305 306 306 306 305 306 308 308 309 309 308 308 307 307 308 309 310 310 310 310 310 311 314 316 314 312 311 313 315 317 320 318 320 324 325 324 323 323 326 330 332 333 335 335
303 303 303 303 302 302 302 302 302 300 299 300 299 300 301 301 302 303 302 303 303 303 303 303 303 304 304 305 304 303 304 304 303 303 303 303 303 303 303 303 304 306 309 307 305 306 307 308 308 306 307 308 309 309 309 310 308 307 308 310 310 311 312 312 312 313 314 316 314 310 312 316 316 319 322 320 317 316 318 324 326 325 326 329 332 333 335 335
303 303 303 303 302 303 302 302 301 299 299 299 300 301 302 302 303 303 303 303 302 303 304 303 304 304 304 304 304 304 304 304 304 303 303 303 304 304 304 304 303 305 307 306 306 305 306 308 308 306 307 307 308 309 309 310 310 307 308 309 309 312 316 315 315 320 320 315 313 312 316 322 321 320 324 325 327 326 326 328 328 328 329 330 333 334 334 335
303 303 303 303 303 303 303 302 301 299 299 300 301 301 302 302 303 304 304 303 303 304 304 304 304 304 303 303 304 304 304 305 304 304 304 303 304 305 304 305 304 304 305 308 309 307 306 309 309 306 306 307 307 309 308 310 312 309 307 309 309 310 318 316 312 319 320 314 316 316 315 319 317 318 328 332 337 336 332 331 329 329 331 331 333 334 334 335
303 303 303 303 303 303 303 302 301 300 300 300 301 302 302 302 302 302 303 303 303 304 304 305 305 304 304 304 305 304 305 306 304 304 304 304 304 305 304 305 305 304 305 307 309 309 308 310 310 306 306 307 306 308 308 308 311 310 308 310 309 308 315 319 315 318 318 315 320 317 313 317 316 319 333 337 340 337 332 333 332 330 332 332 333 334 334 335
303 304 303 303 303 303 303 303 301 300 300 300 302 303 303 303 302 302 303 303 303 304 305 306 305 305 304 305 306 305 305 306 304 304 304 304 305 305 304 305 305 305 305 303 306 310 308 310 310 307 306 307 306 307 308 307 306 309 310 309 311 312 315 316 315 318 316 315 319 315 315 320 317 322 337 340 341 339 332 331 332 332 333 333 333 335 334 335
303 304 304 303 303 303 303 303 302 301 301 301 302 303 304 303 303 303 303 303 304 304 305 306 306 305 304 305 306 305 306 306 305 305 305 304 306 306 304 306 305 305 305 303 306 310 309 309 310 307 306 307 307 307 308 307 305 308 310 307 311 316 316 313 314 317 317 317 321 316 315 320 320 330 345 343 339 336 332 332 333 332 333 333 334 335 334 335
303 304 304 303 303 303 303 303 302 301 302 302 302 303 304 304 304 304 303 303 304 305 306 306 306 306 305 305 305 305 306 307 308 309 306 304 305 305 303 305 306 305 305 304 306 308 308 309 310 309 307 306 308 308 307 308 306 307 309 308 308 310 312 314 314 314 316 321 325 320 317 324 326 331 340 341 336 332 331 333 333 332 333 333 333 334 334 335
302 303 304 302 303 304 303 302 302 302 302 303 303 303 303 304 305 304 304 304 304 304 305 306 306 306 306 306 306 305 306 308 310 311 308 303 305 306 304 305 306 305 305 306 306 307 309 312 313 311 307 306 308 308 308 308 307 308 309 309 309 310 313 314 312 313 315 319 322 319 319 329 332 329 333 337 333 330 330 331 332 333 333 333 333 334 334 335
301 304 304 302 302 304 303 302 303 303 303 303 303 303 303 304 305 305 304 304 305 305 305 305 306 306 306 306 306 305 305 308 310 312 311 305 305 306 306 305 305 305 306 307 307 309 311 312 312 311 308 308 309 309 309 309 308 309 310 309 310 312 314 316 319 318 313 313 318 317 317 329 336 331 333 334 330 329 329 330 332 333 333 334 334 334 335 335
300 302 303 301 302 303 303 303 303 303 303 302 302 303 303 304 305 305 304 305 306 306 306 306 306 307 306 305 306 305 306 309 311 312 313 310 307 306 304 304 305 305 306 307 307 309 311 310 311 313 312 309 309 308 308 309 308 308 310 309 309 310 314 323 331 326 315 315 320 315 316 330 333 326 329 329 326 328 330 330 333 332 333 334 333 334 335 334
300 301 302 301 301 303 303 303 303 302 302 302 302 303 303 304 305 305 305 306 306 306 307 307 307 306 305 305 306 306 307 309 311 310 311 311 310 307 304 304 306 306 306 308 309 309 311 313 312 312 311 309 309 309 307 308 308 308 310 309 308 310 312 317 323 319 314 318 320 318 324 335 331 324 328 330 328 331 332 331 333 333 333 335 334 334 335 334
300 301 301 301 301 303 303 302 302 302 302 302 302 303 304 305 305 306 306 306 306 306 306 307 308 307 305 305 306 306 306 308 310 310 310 311 314 311 304 303 306 306 306 308 310 309 313 317 316 314 314 311 310 310 308 309 309 309 311 309 308 310 309 313 318 315 314 316 316 320 329 336 337 332 331 333 331 333 332 331 333 334 334 335 334 334 334 335
300 301 301 300 301 302 302 301 301 301 302 302 302 303 304 305 305 305 307 307 307 307 306 307 308 308 308 308 308 308 308 309 309 310 310 312 316 315 308 305 306 306 307 309 310 310 312 317 319 319 318 313 312 313 312 311 310 310 310 309 309 309 309 314 318 317 320 319 317 327 333 333 342 342 335 333 333 333 333 333 334 334 335 336 335 334 334 335
299 300 300 300 301 302 301 301 301 301 302 302 303 304 304 304 305 305 307 307 308 307 307 307 307 309 309 309 310 310 311 311 310 311 311 312 316 316 312 309 307 306 309 311 311 311 311 313 317 320 317 313 314 315 312 311 311 310 311 310 310 311 311 314 316 319 323 318 319 335 336 331 343 347 337 334 333 333 334 334 334 334 335 336 335 335 335 335
299 299 299 299 300 301 301 301 301 301 301 302 304 304 304 304 304 305 306 306 307 307 308 308 308 308 309 309 311 311 311 313 312 311 312 313 314 315 312 308 306 307 310 311 312 314 313 313 316 318 316 313 313 313 312 311 311 311 312 311 311 314 313 312 317 324 322 314 321 335 334 336 348 346 337 334 331 331 334 333 334 335 335 335 335 335 335 335
298 299 299 299 299 300 300 300 301 301 301 303 304 304 304 304 304 305 305 306 306 307 309 310 308 308 309 309 309 310 311 314 313 311 312 312 312 314 312 308 306 307 310 311 313 313 312 318 322 317 314 315 315 313 311 311 311 311 312 313 313 316 315 314 322 328 321 318 328 334 336 343 346 338 333 331 327 329 333 333 334 335 335 335 335 335 335 335
297 298 298 298 298 299 300 300 301 301 301 303 304 304 303 304 304 304 304 305 306 306 308 309 308 308 309 309 309 310 311 312 311 311 311 310 311 313 315 314 312 310 308 309 313 311 311 320 323 318 314 316 316 314 310 310 313 312 312 314 314 315 315 317 326 327 321 325 332 331 337 346 340 330 329 328 326 331 335 334 335 335 335 335 335 335 335 334
297 298 298 298 298 300 300 300 300 301 302 303 304 303 303 303 304 304 304 305 306 306 307 307 307 307 309 309 309 310 310 310 310 310 309 309 310 312 314 314 314 317 315 312 312 313 313 317 320 322 321 316 315 315 312 312 315 313 313 315 315 318 318 318 324 325 324 331 333 328 333 344 339 330 328 328 329 333 334 334 335 335 335 335 334 335 334 334
296 297 298 298 299 300 300 300 300 301 303 303 302 302 302 303 303 304 304 305 306 305 305 306 306 307 310 311 310 311 310 309 310 310 309 309 310 310 312 311 311 317 320 317 313 315 317 314 315 323 323 313 313 317 314 314 315 314 318 320 317 320 321 317 319 323 326 333 336 331 330 339 335 330 329 330 331 334 334 334 335 334 335 335 334 334 334 334
Wind_Speed
17 17 17 18 17 17 16 15 16 15 14 14 14 14 16 16 17 17 17 17 17 19 18 19 19 19 19 19 18 19 22 24 22 22 20 13 9 12 15 18 20 17 16 17 17 15 14 16 16 16 14 13 12 11 14 14 11 9 3 4 8 6 6 7 8 8 7 7 8 8 13 10 7 12 12 9 8 9 9 8 10 12 15 18 19 19 15 12
18 18 17 17 16 16 17 17 17 17 16 16 16 16 16 16 17 17 18 18 18 18 18 19 19 19 19 19 18 18 21 22 24 25 18 10 8 11 14 18 20 19 20 20 19 17 15 14 14 14 13 11 9 10 12 13 15 9 3 5 9 5 6 9 11 9 8 8 8 12 15 13 12 13 9 6 5 4 3 5 8 12 16 18 20 19 14 16
18 17 17 17 17 17 17 18 18 19 19 18 18 18 17 16 16 16 17 18 18 17 17 18 18 20 20 19 18 17 19 22 25 23 12 9 9 10 14 18 19 18 20 22 19 18 16 14 13 12 13 12 10 11 11 11 12 10 5 5 8 4 4 8 11 12 10 9 10 13 12 11 14 13 8 6 3 2 4 6 7 11 18 19 20 20 17 19
18 18 18 17 18 17 17 18 18 19 20 19 19 18 18 18 17 16 16 16 17 17 17 18 18 19 19 20 18 16 18 20 20 13 12 15 11 10 13 16 18 18 20 21 19 18 16 15 13 11 11 9 11 12 9 12 10 7 8 6 5 5 4 6 8 13 16 14 12 11 7 7 11 13 10 6 2 1 5 9 9 13 21 23 23 22 22 22
17 17 18 18 18 17 17 17 18 19 20 20 20 19 19 19 18 18 18 17 17 17 18 17 18 18 18 20 17 14 13 10 6 6 16 16 11 9 7 8 12 16 20 21 19 18 16 15 13 12 9 5 9 9 7 16 13 4 8 8 3 4 3 6 10 13 17 16 12 7 6 8 8 11 10 7 5 4 5 9 11 15 21 26 28 26 25 24
17 17 17 18 18 17 17 18 19 19 20 21 20 20 20 19 20 20 19 20 18 18 18 17 17 17 18 19 16 11 6 4 1 9 15 12 8 5 2 1 6 14 20 20 19 18 16 15 13 11 8 3 7 7 5 18 18 5 5 7 6 5 3 5 12 15 16 14 10 7 8 10 7 7 8 9 9 8 9 10 12 14 18 25 29 29 27 26
17 18 18 18 18 18 18 18 19 20 22 22 22 21 21 21 21 20 20 20 19 19 18 17 17 15 17 20 17 10 8 14 9 10 13 7 6 2 1 1 4 11 18 19 18 17 16 15 14 11 7 2 5 7 7 14 17 11 4 2 5 8 8 9 9 13 16 14 14 13 11 9 7 7 9 11 11 9 11 11 13 14 15 23 28 30 28 27
17 18 18 18 18 18 18 18 19 20 21 22 23 22 22 23 22 22 21 20 20 19 19 18 17 15 16 20 17 10 13 18 12 10 13 11 12 8 6 4 3 7 13 15 15 15 14 14 15 12 6 4 6 7 11 11 9 10 7 2 4 7 11 16 15 15 15 15 17 15 12 13 12 9 10 15 15 11 14 16 15 12 14 25 29 29 29 29
17 18 18 18 18 18 18 18 18 19 20 21 22 22 23 25 25 24 24 22 21 20 19 18 17 15 15 19 15 10 18 20 16 13 19 20 20 16 13 8 4 4 7 11 12 13 13 12 16 14 6 6 8 5 9 9 5 7 9 7 6 7 10 13 16 18 18 15 15 11 8 15 17 10 11 19 18 16 19 19 15 11 16 26 29 28 29 31
17 17 18 19 19 19 19 19 19 19 20 20 21 21 22 24 25 26 25 24 22 20 20 17 17 15 14 18 11 8 20 21 14 10 13 18 20 19 16 11 9 7 5 7 9 11 12 11 13 15 8 5 6 5 6 8 4 4 9 11 11 13 15 13 12 14 15 13 12 9 6 16 18 9 7 10 8 11 15 14 12 12 18 26 28 29 30 31
18 18 19 20 20 21 21 21 20 20 21 22 22 23 23 23 25 26 25 24 22 21 20 17 15 14 14 16 12 13 18 12 7 12 14 16 18 18 15 12 11 10 8 7 7 8 11 12 10 10 7 4 3 4 8 9 5 3 3 4 8 12 15 16 13 13 11 7 9 8 6 15 13 7 11 12 9 11 10 11 12 15 20 27 27 28 30 30
19 20 20 21 22 22 22 22 22 22 23 24 25 26 26 25 26 28 28 26 23 20 20 17 14 15 15 18 25 26 19 10 13 20 21 20 21 21 19 15 14 13 12 10 9 8 9 12 11 10 7 5 3 2 6 9 10 9 5 2 4 4 7 13 14 15 11 4 6 5 4 12 8 7 16 17 15 15 13 13 16 19 24 26 26 27 29 29
20 21 22 22 23 23 23 23 23 24 25 25 26 28 29 27 27 29 30 28 23 20 20 16 14 16 14 19 32 31 24 22 23 21 18 18 22 25 24 20 16 15 14 13 11 9 8 8 9 13 11 5 2 2 3 3 6 8 4 2 3 3 4 9 12 14 11 7 9 5 4 10 8 11 17 15 15 15 14 17 20 22 25 25 27 28 29 29
22 22 23 23 23 23 23 23 24 25 25 26 28 29 30 28 27 27 28 28 24 20 19 15 13 15 15 23 33 29 25 23 16 11 8 8 13 18 20 20 18 17 16 15 12 9 8 6 5 10 13 10 7 5 6 4 1 5 4 2 3 3 5 6 10 11 8 10 15 9 6 10 8 12 14 13 17 18 16 20 23 24 25 27 29 30 30 29
23 23 23 23 23 23 23 24 24 25 26 27 28 29 29 27 25 25 25 27 25 20 17 13 12 12 14 25 31 23 16 13 6 5 5 6 7 8 9 13 18 18 17 16 14 10 8 6 5 5 7 10 10 5 4 3 2 2 5 3 4 5 5 4 6 12 9 8 15 12 5 8 10 15 16 13 16 20 20 22 26 27 28 29 30 33 33 30
23 24 24 23 23 23 23 24 24 25 26 27 28 28 26 23 23 24 24 24 22 18 13 10 11 11 10 16 18 12 9 7 4 3 4 8 10 6 3 6 12 15 16 16 13 11 9 6 5 6 4 5 6 1 4 2 2 2 4 4 4 5 3 3 3 10 13 7 10 13 6 4 7 13 18 17 16 21 21 22 28 29 29 32 33 34 35 32
24 25 25 23 23 23 23 24 25 26 26 27 28 27 24 21 20 20 20 17 13 10 9 8 7 9 13 14 13 13 11 7 6 5 8 12 12 9 7 7 6 11 14 15 14 12 10 7 5 5 6 3 4 5 2 4 6 2 1 2 2 4 5 3 4 6 12 9 6 10 9 7 8 11 14 16 19 22 19 20 26 29 30 32 33 34 34 34
25 25 24 23 22 22 23 24 25 26 26 27 27 26 22 16 15 16 15 12 5 2 6 8 5 4 12 16 15 16 13 9 12 13 15 14 11 8 7 6 4 8 12 12 12 13 10 7 6 3 4 5 5 8 7 6 6 4 4 4 2 3 6 7 5 4 9 9 8 9 9 10 12 13 14 13 16 22 21 23 27 28 30 31 31 32 33 35
24 22 22 22 21 21 23 23 25 26 26 27 26 23 17 13 14 12 9 8 3 2 2 7 10 6 9 14 16 17 17 18 22 24 20 12 7 6 4 5 6 8 10 8 8 13 10 4 5 5 6 9 8 9 8 4 7 8 6 5 4 3 4 5 5 6 9 8 7 8 8 9 12 14 14 12 12 17 19 23 26 25 27 28 29 31 33 37
22 22 22 22 21 22 23 24 25 25 25 25 23 19 14 12 12 6 8 15 14 12 13 14 16 19 23 28 29 27 25 26 25 22 16 6 1 4 3 6 6 7 8 6 6 11 11 5 6 8 7 9 8 8 9 3 5 9 6 5 6 4 3 4 4 6 6 7 7 9 8 9 12 14 12 10 10 9 10 15 21 24 26 27 29 32 35 36
21 22 22 22 22 23 23 24 23 23 22 20 17 14 10 9 7 6 12 20 21 18 21 24 23 29 33 36 37 31 26 23 21 20 16 11 7 4 4 8 5 4 6 7 7 8 10 8 9 8 5 8 8 7 9 6 3 6 6 5 5 5 4 5 4 4 3 5 5 7 8 10 12 13 11 8 8 7 12 16 19 24 26 28 31 34 36 33
21 22 24 23 23 23 23 22 21 20 18 14 13 11 8 8 8 11 14 15 21 23 24 28 28 32 35 35 36 31 23 17 19 23 18 13 14 8 8 9 5 4 5 7 7 6 8 8 7 7 5 7 8 7 8 9 4 3 3 5 4 3 3 4 5 3 3 5 4 5 8 9 11 13 9 8 7 8 20 26 27 29 27 28 31 33 33 29
22 23 24 23 23 24 21 19 19 17 13 12 13 11 8 9 9 14 14 11 20 26 24 24 25 30 32 29 26 22 20 13 14 21 16 9 14 15 12 7 4 5 7 9 9 8 7 6 7 8 6 8 7 8 9 7 6 3 3 5 3 3 2 3 4 3 1 3 2 5 6 6 7 9 7 7 7 8 18 25 27 31 32 33 35 35 34 32
22 23 24 22 22 24 21 17 15 12 12 12 11 7 6 9 11 15 13 7 11 17 17 15 16 21 21 16 12 11 16 14 12 14 10 12 17 15 11 7 6 5 8 11 11 8 4 3 10 11 7 9 7 7 11 7 6 5 4 4 3 3 4 5 3 3 3 2 2 6 2 5 4 7 6 3 4 6 13 17 17 24 30 32 31 30 33 34
23 23 24 22 22 22 21 17 12 11 13 10 7 5 6 10 12 13 11 4 6 9 9 6 8 11 8 5 8 9 10 13 16 12 6 15 17 10 7 9 8 6 9 10 8 6 5 3 12 13 9 9 8 7 10 9 6 5 5 6 6 5 4 3 1 3 2 3 3 4 3 6 4 7 7 2 2 5 9 12 14 21 26 26 25 26 29 32
23 23 23 22 21 22 20 15 11 13 13 7 4 5 6 8 10 11 7 2 4 4 2 1 4 4 2 4 7 5 4 7 12 13 11 15 16 10 6 7 6 5 7 7 4 3 3 3 7 12 11 10 8 6 8 10 7 4 5 8 7 6 4 2 2 4 3 5 4 2 5 5 5 5 6 3 5 6 6 7 12 19 23 25 28 29 29 31
22 23 23 21 20 20 18 15 14 14 11 6 4 5 5 6 8 8 4 1 3 1 1 2 4 2 2 3 3 4 2 5 7 9 17 17 13 10 6 5 4 4 6 6 4 2 6 7 5 8 11 9 8 6 6 9 7 3 6 10 8 5 5 3 3 3 3 3 4 1 4 3 4 4 4 2 5 4 4 5 7 13 21 28 31 30 28 29
22 22 22 21 19 18 16 15 15 13 8 5 6 5 5 6 6 4 2 2 2 1 2 3 4 5 4 4 5 10 8 8 6 4 15 19 14 7 4 5 5 5 7 8 6 2 7 11 6 6 10 8 7 6 7 9 6 5 8 11 8 6 6 3 4 2 1 2 4 4 1 3 5 5 3 2 3 4 6 8 8 12 23 29 29 27 25 26
22 22 22 21 20 16 13 14 14 10 6 5 6 6 5 4 3 2 2 1 1 1 1 2 3 6 7 6 7 15 15 10 4 1 10 18 16 6 2 6 6 5 8 8 6 2 4 14 12 7 6 6 6 6 8 10 5 5 9 10 7 6 4 3 3 2 2 2 5 5 2 2 4 5 0 3 2 5 7 8 9 14 21 24 24 25 25 25
22 22 22 22 21 15 12 13 11 8 5 4 5 4 5 3 0 1 1 2 1 1 1 2 3 2 5 5 5 9 9 7 8 4 8 13 15 9 2 5 6 3 5 5 6 5 2 11 15 7 5 6 8 7 8 11 7 6 8 7 5 2 1 2 1 1 1 4 6 6 4 3 3 5 3 4 4 7 7 7 8 10 15 21 24 28 28 27
23 23 22 21 18 14 12 11 9 7 4 3 2 2 3 2 2 1 2 1 1 1 1 3 4 2 4 7 4 4 4 5 7 4 7 6 9 9 3 4 3 3 3 3 6 8 5 4 8 6 9 9 8 7 7 9 8 7 6 6 5 2 2 2 2 1 4 5 5 6 6 5 4 5 4 5 6 7 8 8 9 10 15 23 28 30 29 28
24 24 21 18 15 13 10 9 8 7 3 3 2 3 1 1 0 3 2 3 2 2 1 2 3 3 6 7 3 3 2 3 5 5 6 5 5 6 4 4 3 4 4 4 5 6 6 3 3 5 13 14 9 6 5 6 7 6 5 6 6 3 2 3 3 2 4 4 3 5 6 3 5 6 7 8 9 9 9 11 13 12 17 25 29 30 29 27
25 22 18 13 11 9 6 6 7 5 2 3 3 2 1 0 2 4 2 1 2 1 1 3 6 8 8 5 3 4 1 2 6 6 5 6 6 5 4 4 3 4 3 4 5 4 4 3 4 5 10 13 12 8 6 7 7 6 6 7 7 5 5 7 4 1 2 3 3 3 3 2 4 5 9 12 12 12 14 17 14 12 20 28 29 28 27 26
23 20 15 8 5 5 3 6 7 5 5 4 3 1 2 2 3 4 3 3 3 2 2 3 8 10 5 2 2 4 3 3 6 7 5 6 7 5 5 5 5 2 4 4 4 5 5 3 6 6 5 11 13 8 7 7 6 6 3 5 5 4 5 5 3 3 3 2 2 2 2 3 3 4 8 10 9 9 11 15 12 12 20 26 25 24 25 26
22 16 11 5 3 5 4 5 6 6 6 4 1 1 2 3 3 2 2 3 3 4 5 6 7 7 2 1 1 3 4 4 4 6 4 4 6 6 5 6 6 2 3 5 2 4 5 3 5 7 6 12 12 6 7 9 6 4 3 5 4 5 5 3 3 5 4 2 2 2 3 4 4 4 3 2 3 1 5 10 12 14 19 24 24 24 26 26
21 11 6 5 4 6 6 6 6 7 7 3 1 2 3 3 3 2 2 3 4 5 8 8 4 2 2 1 0 3 6 4 3 4 2 3 4 5 5 3 5 4 3 4 3 4 5 3 4 8 7 10 13 10 8 9 6 2 3 4 4 4 6 4 2 1 4 4 3 2 3 4 3 4 4 4 4 4 5 7 10 15 21 24 23 25 27 28
18 8 7 6 5 7 7 7 6 7 6 2 1 4 3 3 4 3 3 6 7 6 6 5 1 2 3 2 2 1 3 2 4 2 2 3 2 4 5 2 4 7 7 5 2 3 6 2 5 10 9 9 15 15 8 9 9 5 5 6 2 3 3 3 2 2 4 3 4 1 4 3 1 3 4 5 5 3 4 5 8 14 20 20 21 25 29 30
12 7 8 10 8 7 8 7 6 6 4 2 4 6 3 3 5 5 6 8 7 5 3 2 1 2 1 2 2 1 3 1 4 3 2 3 2 4 6 3 4 8 9 7 2 2 4 2 5 8 10 6 10 13 7 7 8 6 6 6 3 3 2 1 2 1 2 3 3 2 1 3 4 4 4 1 6 6 6 8 10 13 16 19 22 27 29 29
7 4 7 13 11 8 7 5 5 5 3 1 4 5 3 4 8 10 11 11 6 4 2 1 1 1 1 2 1 1 3 1 4 3 2 2 2 4 7 5 4 7 8 8 4 2 1 2 1 6 9 6 5 7 7 6 4 3 6 6 3 3 4 3 3 2 3 3 2 1 2 3 5 6 6 7 9 9 9 10 11 12 17 21 26 30 32 32
6 1 5 13 15 10 6 3 4 3 2 3 4 4 5 6 10 13 12 9 5 3 2 2 2 1 1 1 0 1 2 0 2 2 2 3 2 3 6 7 4 5 8 8 5 1 2 1 2 3 4 7 5 6 8 9 6 4 7 7 4 1 2 3 2 1 3 3 2 1 1 5 6 5 7 7 8 10 11 10 10 13 19 25 28 31 33 34
8 1 3 11 14 8 4 2 3 3 1 3 4 5 7 8 10 13 11 7 4 4 3 3 3 2 2 2 1 1 1 1 2 1 1 3 3 2 6 11 8 3 6 5 4 3 1 0 1 2 4 6 5 4 6 9 8 6 5 5 6 4 3 4 2 1 2 1 3 3 1 6 6 3 5 6 6 7 7 7 8 13 21 26 27 29 30 31
8 1 3 10 10 7 4 2 2 2 2 4 7 8 13 12 8 9 8 4 3 3 3 3 3 3 2 1 1 1 2 1 2 2 1 4 6 5 8 17 16 7 6 4 3 4 3 1 1 2 4 5 4 5 9 11 9 6 4 5 6 5 4 5 5 3 1 0 1 3 1 6 5 3 3 4 4 7 10 9 8 11 18 22 23 26 27 29
7 3 5 9 8 6 4 2 2 1 2 7 11 13 16 10 4 6 5 3 3 2 2 3 3 3 1 2 1 1 2 1 1 2 2 3 6 8 12 20 18 10 5 3 4 5 4 1 1 1 0 1 3 2 6 10 9 6 4 5 7 7 5 5 5 4 4 3 1 2 2 6 5 4 3 3 5 9 13 15 13 12 15 18 21 24 26 27
9 7 5 9 6 3 3 2 3 4 5 9 10 12 13 7 3 7 7 5 5 3 3 3 2 1 0 1 2 2 2 1 1 2 1 1 3 8 15 20 17 10 6 5 4 6 4 1 1 2 4 3 4 3 3 6 7 6 5 4 6 8 7 4 2 3 3 4 4 4 4 7 5 3 3 2 6 7 10 16 20 18 17 19 22 24 25 25
10 6 6 13 8 1 2 4 3 4 7 9 10 10 10 6 6 10 9 7 5 2 2 4 3 2 2 2 3 4 3 3 2 0 1 2 4 3 11 19 17 10 10 11 5 5 5 2 3 4 5 6 5 4 4 4 4 3 4 6 6 9 11 6 2 3 2 3 4 5 5 7 6 4 6 5 7 7 8 15 20 20 21 23 23 25 26 25
7 2 6 14 11 2 4 9 5 3 6 8 8 8 9 9 10 13 9 4 3 3 3 3 5 4 3 3 2 3 3 3 4 2 1 2 4 2 3 11 15 11 13 17 9 4 2 1 3 5 5 7 7 5 3 5 5 3 6 9 8 8 10 7 4 3 4 3 3 6 5 4 7 4 3 3 5 7 7 11 16 19 22 24 24 26 26 25
5 2 3 8 7 4 8 10 7 5 8 9 5 5 10 12 10 9 6 2 3 6 3 3 3 5 6 7 4 2 3 2 3 2 2 2 3 4 4 2 10 14 16 16 11 4 0 3 3 5 6 8 6 7 8 9 8 8 9 11 10 8 8 7 5 5 5 5 4 7 4 3 7 3 1 2 4 6 5 8 14 19 21 23 24 27 27 25
5 3 4 5 4 3 5 9 10 10 11 10 4 4 10 13 11 9 6 5 7 6 2 2 3 8 9 8 5 3 4 3 1 1 3 3 3 4 3 3 8 15 14 8 7 6 1 4 5 4 4 5 4 7 10 12 9 9 11 11 9 9 10 10 9 7 7 6 7 6 6 5 6 2 3 4 3 4 4 9 15 19 20 23 26 28 29 28
6 3 5 7 6 7 10 14 15 11 10 8 4 4 9 12 12 9 4 4 6 5 3 3 6 10 10 6 4 3 2 3 2 1 2 4 6 3 2 3 5 11 8 3 3 3 2 3 4 3 1 1 1 6 9 12 10 8 11 13 11 11 13 11 8 6 6 4 5 5 7 7 8 3 3 3 4 7 9 14 17 18 20 24 26 28 30 31
8 5 9 11 9 10 13 13 11 8 7 6 4 5 8 10 12 11 7 6 6 5 5 6 9 12 9 4 3 3 2 1 1 3 3 5 5 3 3 2 1 5 5 3 1 1 1 3 2 2 2 5 4 2 7 11 12 9 7 8 10 10 9 6 4 4 3 1 2 4 3 6 6 3 3 3 9 13 12 15 18 18 21 25 25 26 29 31
8 8 11 11 7 7 9 9 7 5 4 3 4 7 8 9 12 14 11 8 6 5 7 10 12 12 7 4 5 6 4 1 3 7 7 6 6 5 2 2 2 1 2 2 1 2 1 1 2 3 4 4 4 3 6 8 11 10 5 6 8 8 6 4 3 5 6 4 2 4 1 5 4 3 5 4 10 12 10 12 17 18 23 27 25 25 29 32
12 12 12 8 5 5 6 6 6 5 3 2 6 9 9 10 13 13 9 5 3 6 9 10 12 10 6 6 6 5 7 10 12 15 15 13 13 11 9 7 5 1 1 1 1 3 1 1 3 2 4 2 4 4 7 8 9 5 4 7 8 6 5 3 1 3 6 6 6 4 4 6 4 6 6 5 7 8 9 14 18 20 23 26 26 27 29 31
Wind_Direction
341 338 338 343 346 343 341 340 338 336 328 324 325 326 330 331 329 328 326 324 322 323 325 326 324 318 315 314 308 305 305 301 298 291 280 282 295 275 261 254 244 232 226 229 227 223 226 228 229 228 224 217 218 215 207 204 191 187 175 214 224 204 200 181 177 189 165 202 235 235 221 199 224 240 238 250 227 233 250 228 231 230 232 246 255 267 270 231
340 342 345 347 345 343 343 343 342 341 336 332 331 328 330 331 330 327 326 324 321 321 322 324 326 325 322 318 313 308 307 307 303 292 279 267 257 252 254 251 244 234 228 229 224 219 221 223 223 223 216 206 207 202 201 199 194 194 142 211 225 198 187 180 183 185 169 202 229 243 231 207 226 237 232 240 199 187 218 201 221 230 229 237 245 251 245 217
339 341 342 342 341 340 340 340 341 339 338 337 335 332 330 329 327 324 324 324 324 321 320 323 322 324 326 322 318 314 312 311 305 292 263 222 222 231 247 249 243 235 229 228 222 216 220 218 213 211 203 199 200 192 192 192 195 207 189 218 234 198 196 199 194 194 192 203 220 245 241 216 233 238 225 221 204 153 183 207 214 225 231 229 231 234 225 209
338 339 339 339 338 338 338 338 337 335 336 334 332 332 329 326 321 318 320 320 322 322 321 322 320 323 324 323 321 318 319 316 306 281 207 195 202 215 240 249 244 236 227 224 216 211 217 215 208 197 189 195 199 196 197 189 186 198 200 219 225 180 210 222 199 202 209 214 224 243 249 240 248 243 229 207 213 218 217 239 240 246 245 228 220 221 214 205
339 339 339 338 337 338 337 334 334 334 334 332 331 330 327 327 323 321 320 316 317 318 320 321 321 323 321 322 322 320 326 326 311 206 186 184 189 199 225 247 234 223 215 211 207 206 211 210 203 189 183 188 190 197 210 198 191 193 218 228 213 165 193 216 205 209 215 219 233 249 242 249 253 244 232 200 199 230 262 280 279 278 265 239 223 217 209 205
343 343 341 341 339 337 337 335 334 332 330 332 331 328 327 325 323 323 321 319 318 315 317 319 320 321 319 320 317 316 310 278 231 169 176 173 181 181 128 252 195 197 200 197 201 205 207 203 196 183 174 184 198 201 202 199 203 220 238 228 219 203 200 214 206 213 222 222 228 234 241 249 251 260 258 232 230 255 275 293 305 299 274 245 226 215 210 207
347 347 347 348 345 340 338 335 332 331 330 331 330 329 327 324 322 321 318 318 317 315 316 315 316 318 317 313 312 312 260 258 259 181 176 189 221 209 28 314 158 181 189 187 197 202 205 202 193 180 160 180 215 209 206 203 210 223 242 238 226 221 222 240 227 217 225 230 235 240 255 263 257 271 279 260 249 261 275 289 306 304 267 237 221 215 214 210
349 348 349 351 349 342 337 333 330 329 328 327 327 328 327 324 322 319 317 315 313 313 311 313 315 317 315 309 316 315 262 269 284 215 213 254 262 262 282 270 174 184 187 187 197 196 203 202 193 183 167 204 197 193 209 214 224 224 227 244 248 238 227 236 246 247 245 247 251 256 267 267 263 273 278 266 258 265 286 296 299 295 250 225 216 214 211 206
347 346 345 345 344 340 336 333 330 327 325 324 324 327 327 326 325 322 319 315 312 310 307 308 310 312 308 300 311 303 266 281 301 263 245 257 262 264 273 266 229 209 193 198 203 198 204 203 198 193 190 220 205 196 199 202 232 220 213 224 235 248 244 240 244 252 257 258 258 263 277 271 269 275 272 266 264 265 274 285 285 273 239 219 212 209 207 205
344 342 341 339 337 336 334 332 330 329 327 325 324 325 326 325 326 323 317 313 309 306 304 301 300 302 296 294 302 287 280 290 302 288 262 259 263 268 271 261 248 245 226 214 207 206 207 203 206 206 218 239 213 220 198 188 221 200 196 217 227 235 246 251 249 252 259 266 255 241 259 271 265 250 251 263 269 257 253 259 257 247 229 212 206 205 206 208
340 339 338 335 334 333 331 332 332 330 328 327 325 322 322 322 323 320 315 310 304 302 302 299 296 289 282 285 269 260 285 302 324 318 301 283 275 274 269 253 246 247 243 230 208 207 207 202 206 210 223 236 215 238 233 221 238 263 199 223 240 231 236 242 243 247 251 272 250 220 245 268 258 229 241 249 260 266 245 226 223 223 215 205 203 205 207 208
340 338 336 334 335 334 332 334 334 331 329 328 325 321 320 320 321 319 314 308 300 297 298 297 293 281 277 272 257 257 272 287 304 299 290 283 273 267 264 251 243 239 244 243 209 192 202 205 209 215 213 209 200 216 256 240 230 251 265 291 269 248 239 230 228 232 223 236 242 204 267 266 242 225 247 248 251 256 234 208 207 205 200 197 200 205 209 209
340 338 337 336 335 334 334 334 331 329 327 324 322 319 317 318 319 317 313 305 296 291 291 289 280 274 273 266 261 267 281 288 294 292 285 280 267 262 260 252 243 233 240 244 213 188 197 205 214 226 228 224 210 204 319 298 209 217 216 208 257 302 274 218 211 220 209 215 219 184 249 256 249 246 249 247 240 234 208 193 192 190 189 192 198 206 211 211
339 337 336 334 332 332 331 329 327 325 324 321 319 316 316 318 317 313 308 300 291 283 284 281 268 264 258 260 269 281 292 291 295 304 310 298 272 264 259 250 240 232 236 238 224 200 191 199 218 234 240 240 252 296 340 345 194 169 157 182 204 217 261 215 187 185 192 220 206 185 245 252 263 260 250 241 231 219 192 181 183 182 185 191 197 204 211 212
339 335 331 328 327 326 325 324 324 322 321 320 319 318 318 320 317 311 304 297 289 278 274 269 251 249 257 267 278 289 285 278 293 320 344 350 313 276 251 241 235 231 232 231 227 211 193 213 232 232 247 236 240 299 356 335 333 145 175 193 178 193 266 269 192 171 175 211 193 183 249 260 260 259 254 250 230 214 196 180 179 181 185 190 197 203 208 212
337 333 328 325 323 322 322 321 320 319 319 319 319 319 320 322 319 312 308 303 292 274 257 249 239 234 258 277 285 285 253 251 283 284 317 334 322 305 277 246 231 226 228 224 223 217 211 235 240 222 228 214 203 142 40 324 283 255 200 184 170 181 222 281 252 189 177 173 185 197 226 259 260 257 248 245 232 216 199 182 179 181 185 190 196 202 206 210
333 332 329 325 321 320 320 320 318 316 317 318 319 322 325 327 321 316 318 315 298 266 228 224 237 237 252 266 279 275 255 249 258 267 305 311 305 298 296 281 235 214 214 212 217 220 217 218 211 214 214 187 150 135 125 229 217 241 149 173 192 168 166 195 267 225 183 179 195 207 221 233 254 268 252 236 222 212 196 182 182 181 185 190 194 200 205 209
329 330 329 325 321 320 320 319 316 315 316 318 320 324 329 330 324 315 318 328 331 219 206 217 217 241 257 257 263 272 273 272 271 280 300 306 299 292 286 278 237 187 192 199 212 213 207 205 187 172 190 186 174 166 187 209 186 164 141 170 216 147 162 175 207 216 178 193 205 196 218 233 249 268 265 247 215 203 194 185 183 183 186 190 193 199 205 210
328 330 329 324 321 320 320 317 314 316 318 318 321 327 330 332 329 315 307 329 341 187 242 222 206 219 268 269 269 278 287 289 287 289 295 301 297 289 267 241 219 179 175 177 199 198 187 184 182 186 195 193 191 180 190 187 152 162 150 158 177 158 190 194 210 218 173 183 212 196 204 224 240 251 254 252 215 201 200 185 180 184 188 190 193 199 205 211
332 333 329 325 322 321 321 317 316 320 322 322 325 333 344 347 343 325 292 300 292 273 274 261 236 240 262 276 280 285 290 291 289 288 288 281 267 306 253 207 198 191 186 162 173 184 174 186 208 202 195 184 183 175 188 198 132 152 142 145 173 171 234 234 231 248 185 171 216 204 194 211 231 243 244 230 195 185 190 180 178 183 187 192 196 201 207 211
333 331 326 326 325 324 323 319 319 324 326 327 332 341 353 353 337 305 304 301 297 287 276 276 265 254 263 274 279 284 291 293 286 276 271 249 240 287 213 182 169 200 195 147 142 166 175 209 217 197 175 166 170 159 180 209 122 132 152 145 157 173 219 236 224 257 200 173 230 204 194 217 226 239 239 194 164 166 174 175 182 185 188 194 198 204 208 210
332 329 326 327 327 325 323 324 326 327 328 331 334 333 328 322 297 294 309 301 296 293 280 279 272 260 265 271 274 278 280 284 280 273 271 252 239 229 176 171 181 188 165 149 148 166 197 219 194 168 156 148 157 154 171 206 187 124 147 134 144 193 226 266 260 277 156 178 248 197 191 226 230 238 239 180 171 191 184 181 184 187 190 196 202 207 208 207
330 327 325 325 326 323 322 328 330 328 332 330 327 323 307 302 292 300 312 297 293 293 279 272 264 258 264 269 274 271 258 258 272 275 271 223 204 195 175 167 186 170 162 182 182 176 205 213 157 154 158 141 151 163 162 197 208 156 121 128 163 208 169 211 257 297 187 187 208 166 190 247 245 253 257 188 185 196 189 189 189 189 192 198 204 209 207 204
325 324 323 324 325 323 323 331 333 333 334 329 327 326 302 297 297 308 315 290 285 291 282 274 261 256 260 269 276 252 239 235 240 268 261 193 183 182 180 169 163 180 189 195 196 192 231 218 156 154 163 157 158 172 168 185 209 182 155 154 174 200 186 192 240 320 317 279 140 138 203 286 253 243 255 203 180 187 186 188 193 197 200 203 208 210 208 206
324 323 323 326 326 322 324 330 336 338 334 327 329 327 306 301 304 316 323 292 272 287 292 286 250 251 256 258 258 244 244 239 232 243 217 189 189 174 173 175 169 203 197 187 199 208 250 233 162 160 172 172 167 179 181 180 189 205 196 179 183 197 215 235 344 30 38 260 236 146 212 279 269 235 246 265 170 189 180 179 193 202 205 209 212 213 212 210
324 324 326 327 325 323 324 328 331 333 333 326 324 326 313 308 313 323 332 301 281 282 290 260 215 235 226 236 254 239 240 266 256 241 202 190 197 184 168 177 182 204 179 170 205 209 225 228 167 169 173 172 180 189 191 175 164 214 204 177 183 182 199 252 54 87 159 232 259 167 188 258 304 261 252 240 195 202 188 184 199 201 204 210 213 215 213 211
324 326 328 327 324 323 319 318 320 327 332 317 307 320 314 310 317 330 352 336 297 258 194 206 201 209 194 256 263 154 158 330 325 244 203 186 190 191 184 175 178 191 154 155 208 190 178 197 195 182 173 176 191 189 188 169 152 221 192 163 171 174 193 209 101 124 205 250 300 332 158 216 273 263 281 230 197 227 231 216 216 205 207 212 215 216 214 211
327 327 327 326 321 314 304 301 309 322 329 300 288 299 310 310 315 343 26 328 299 165 197 213 219 242 245 293 246 208 254 315 348 247 200 187 184 180 187 188 164 175 171 172 202 177 166 192 198 179 182 190 186 166 161 156 152 218 183 159 172 192 196 164 117 176 292 360 296 303 122 188 254 274 336 79 178 244 244 223 221 210 211 214 215 216 214 212
331 328 329 324 314 304 291 292 303 317 317 284 282 294 312 312 315 37 91 285 303 169 213 197 230 248 243 285 252 228 256 287 300 272 179 186 189 168 158 198 167 167 191 190 201 199 172 193 191 174 192 193 161 148 152 157 173 196 167 152 164 196 196 144 146 215 320 313 244 257 234 196 266 280 336 96 185 240 237 229 224 216 215 214 211 212 212 209
333 329 328 320 311 303 289 291 304 310 299 278 282 303 317 303 305 44 222 255 356 169 211 222 243 232 217 259 256 224 239 257 266 249 170 184 194 191 189 184 162 139 189 193 202 238 249 191 189 181 186 169 146 151 160 168 171 146 144 134 121 139 139 125 135 114 203 264 241 228 206 170 266 280 212 187 206 200 205 226 226 211 210 210 208 209 208 206
334 330 326 316 306 298 291 300 311 310 298 266 284 349 324 292 130 164 239 277 342 231 249 251 235 196 221 249 255 204 199 235 257 215 170 180 189 199 205 169 150 88 150 178 197 238 276 198 189 172 163 156 143 158 173 175 166 141 142 134 118 103 56 58 3 84 188 249 259 216 183 159 232 265 240 232 234 205 196 213 213 201 200 203 206 208 206 202
337 330 323 313 299 293 295 303 304 303 292 245 299 3 335 315 173 227 249 339 321 209 239 264 232 242 250 253 245 186 167 228 231 187 177 177 167 195 201 181 162 113 168 188 168 216 246 235 226 166 167 169 156 156 171 181 175 156 151 146 144 151 154 195 219 194 208 245 261 191 159 178 237 244 242 243 245 227 209 213 214 202 195 198 203 205 202 199
339 330 325 315 299 305 306 283 280 282 251 244 301 342 181 191 254 232 233 312 264 193 259 272 275 285 270 255 220 178 168 249 205 173 171 167 159 194 209 209 186 127 158 169 140 176 214 243 233 185 172 176 171 165 171 183 182 172 164 163 165 158 172 202 205 184 234 240 238 188 162 244 263 256 235 226 235 235 224 224 221 203 197 199 200 198 195 195
343 333 332 330 311 332 319 266 265 250 234 253 297 325 213 251 258 242 236 240 255 276 270 278 294 300 287 225 187 158 170 254 194 157 155 161 164 192 206 218 211 125 106 143 150 173 178 219 214 195 178 172 177 184 163 152 169 182 151 137 159 169 171 192 192 179 209 242 250 199 167 193 203 236 226 219 248 257 230 221 208 197 200 196 192 189 190 194
346 335 336 3 15 1 341 282 264 238 236 255 288 231 239 267 268 269 271 253 271 289 285 296 299 304 322 145 265 197 206 245 188 150 160 170 171 186 194 211 208 168 119 158 176 175 175 248 222 194 187 170 174 183 146 137 168 193 117 116 177 190 147 127 171 174 168 197 245 201 204 214 210 245 269 238 277 274 175 178 165 170 180 178 179 182 187 192
349 349 12 47 23 359 347 308 272 241 241 264 303 247 239 250 252 258 300 285 290 300 304 308 301 300 329 13 86 230 224 220 162 141 167 181 173 174 178 203 185 168 169 164 159 165 164 283 239 184 193 187 171 166 165 163 166 160 147 170 193 166 126 112 180 139 102 165 236 207 211 269 287 282 337 53 77 91 122 147 149 155 162 167 174 179 186 191
358 34 66 45 4 351 336 307 275 246 244 245 259 263 244 237 250 244 260 282 289 295 304 307 323 50 339 343 80 245 262 204 150 135 154 186 182 156 170 200 166 175 198 185 169 180 160 252 258 180 187 211 174 161 176 180 158 146 192 202 149 109 106 103 141 12 65 166 255 234 187 220 222 261 324 48 102 132 141 145 146 153 159 164 171 178 186 191
9 75 60 21 1 345 328 304 267 246 241 226 266 274 251 220 243 241 260 282 289 287 293 291 293 69 15 330 51 300 291 236 161 156 150 186 203 156 164 182 183 192 200 184 185 275 168 187 281 196 182 202 170 159 177 197 177 158 179 191 150 146 195 126 136 147 116 171 269 310 226 217 195 223 282 216 179 176 161 157 158 161 164 167 172 180 187 191
17 90 34 8 355 345 337 309 261 245 239 256 286 288 270 263 270 267 275 287 286 270 283 298 295 106 211 306 34 259 287 187 159 171 159 180 207 184 169 160 208 210 178 161 177 295 209 148 262 218 182 151 151 172 183 196 201 142 155 178 173 141 168 171 156 161 158 174 231 292 325 257 226 216 213 212 200 178 167 170 171 171 172 172 175 181 187 191
20 75 24 3 351 345 342 304 258 244 238 267 285 289 288 292 290 287 288 292 283 263 288 314 323 323 272 306 48 237 298 29 174 199 180 175 180 211 183 169 210 216 156 161 196 251 337 173 190 237 176 146 170 201 183 175 172 160 166 177 177 131 116 151 167 147 135 147 182 171 279 254 245 211 189 208 206 183 179 180 176 173 175 178 181 183 186 189
21 53 10 359 353 344 331 288 249 249 244 276 279 282 295 298 297 302 308 307 277 247 261 286 301 306 295 314 304 205 311 334 216 227 201 180 180 218 197 188 200 191 143 163 214 207 233 255 153 182 176 170 180 173 159 164 164 156 164 177 176 167 121 137 195 251 102 128 169 148 259 264 255 205 181 198 197 186 187 186 181 176 177 182 184 183 184 186
16 43 352 357 360 348 317 247 244 255 235 294 292 287 298 298 292 305 319 328 287 237 247 261 259 267 241 249 299 255 256 250 202 220 226 183 198 215 198 192 189 162 135 170 213 201 185 130 111 197 198 201 197 159 155 162 160 148 159 181 177 164 133 143 183 210 174 241 146 121 258 270 262 231 200 202 185 169 166 169 177 181 182 183 182 181 183 184
355 326 350 358 351 340 325 246 265 285 245 294 297 289 294 293 277 301 312 324 314 273 280 265 243 271 255 208 261 256 243 226 185 231 227 182 215 218 196 189 184 159 138 185 204 195 185 165 265 306 224 309 354 65 150 157 156 164 191 182 172 179 165 147 168 177 181 211 163 108 265 272 279 280 260 210 174 159 156 160 165 172 180 181 177 179 182 183
330 305 341 6 352 326 350 327 301 324 314 310 310 301 296 276 247 298 305 316 328 329 309 292 249 268 289 215 240 265 292 281 265 287 270 273 249 213 192 186 180 167 175 198 184 176 189 202 107 92 104 92 45 58 142 177 177 182 194 174 171 181 168 145 138 131 167 207 159 139 235 256 269 312 1 102 143 141 144 155 162 166 172 175 174 177 180 180
338 311 329 358 6 120 26 358 309 311 321 321 321 317 312 298 303 318 312 301 313 308 280 296 298 280 238 211 227 255 265 220 207 283 184 258 292 215 180 182 180 176 197 210 193 153 179 201 121 126 140 153 167 174 179 187 175 158 160 163 175 185 178 173 114 109 180 212 151 155 223 264 293 357 39 81 122 127 135 151 161 167 169 171 173 175 177 176
4 353 323 345 359 41 345 342 330 307 318 327 322 316 329 332 326 329 320 283 281 291 275 285 301 307 306 303 283 259 259 213 203 229 177 246 283 335 143 179 183 188 204 212 208 145 140 247 161 155 174 179 180 184 160 134 135 142 162 170 185 197 184 161 120 151 186 162 180 213 208 263 298 331 46 91 127 138 148 150 158 165 168 169 171 172 173 173
28 33 328 339 344 339 337 339 349 339 314 319 318 307 332 335 327 332 332 303 312 311 282 233 292 346 345 324 318 290 291 258 194 242 301 279 263 297 330 162 182 202 211 212 213 190 38 287 217 179 204 209 185 167 156 148 156 164 162 175 193 190 166 151 163 196 166 132 252 253 188 213 273 265 203 213 150 147 161 155 158 163 164 164 164 165 170 171
33 339 320 334 322 316 331 322 323 324 311 308 299 297 329 336 334 335 325 306 316 314 291 235 316 349 344 325 323 311 310 339 23 311 314 317 331 322 335 100 176 208 214 212 209 189 173 271 237 201 217 219 201 185 166 151 155 159 156 171 185 169 162 176 197 203 163 165 241 234 166 204 254 228 201 225 181 144 145 152 158 160 158 158 158 161 167 172
21 333 314 330 312 288 294 296 300 309 311 311 315 320 331 333 330 329 316 309 316 314 330 322 316 334 334 320 317 303 313 2 347 322 360 342 333 337 85 109 188 206 206 225 225 166 154 260 240 208 257 360 274 210 176 147 142 154 163 170 170 165 172 181 193 190 167 195 238 182 168 231 249 199 187 214 168 142 139 149 156 157 155 156 158 161 167 174
11 352 321 318 305 290 293 296 301 307 309 315 324 331 332 326 323 326 318 302 298 306 337 330 315 324 325 307 287 258 222 64 317 276 330 344 328 340 69 71 214 189 182 218 290 94 183 249 258 125 62 8 13 167 168 151 144 146 155 159 153 151 155 153 150 151 142 275 271 134 149 264 262 170 131 153 146 139 142 153 158 156 156 158 161 164 169 175
9 1 333 315 300 301 306 307 312 310 303 331 336 329 331 320 319 325 313 284 271 290 324 327 321 322 317 288 269 246 231 201 217 246 264 269 273 289 323 357 1 50 178 202 308 321 215 249 325 59 76 348 355 101 143 137 131 132 134 147 147 141 141 155 170 168 169 176 138 96 110 266 259 126 114 145 145 139 145 156 155 155 158 161 165 169 171 175
359 358 348 327 291 299 316 316 321 313 301 340 333 324 320 310 314 323 315 288 273 282 294 310 313 312 311 299 285 277 299 302 284 275 269 252 249 261 266 272 289 296 181 111 265 262 123 55 310 55 93 340 342 102 123 105 105 137 194 184 163 138 132 138 155 203 182 152 137 154 221 233 191 134 133 155 151 143 150 155 157 159 161 165 171 174 176 178